Hourly Data Report for September 05, 2017

All times are specified in Local Standard Time (LST). Add 1 hour to adjust for Daylight Saving Time where and when it is observed.

ST. STEPHEN
NEW BRUNSWICK

45°12'36.600" N
67°15'10.300" W
26.10 m
8104935
71607
WSS

Download Data

Hourly Data (September 2017)
Hourly Data Report for September 5, 2017
Temp Definition
°C
Dew Point Temp Definition
°C
Rel Hum Definition
%
Wind Dir Definition
10's deg

Wind Spd Definition
km/h
Visibility Definition
km
Stn Press Definition
kPa
Hmdx Definition


Wind Chill Definition


Weather Definition


TIME
00:00 15.8 12.7 82 17 4   100.48     LegendNANA
01:00 14.6 12.4 87 0 1   100.49     LegendNANA
02:00 13.3 11.9 91   0   100.44     LegendNANA
03:00 13.8 12.9 94 11 3   100.42     LegendNANA
04:00 14.7 13.8 95 14 5   100.36     LegendNANA
05:00 14.7 13.4 92 15 9   100.34     LegendNANA
06:00 14.2 13.0 92 16 7   100.37     LegendNANA
07:00 15.4 14.0 91 17 6   100.38     LegendNANA
08:00 17.2 14.9 86 19 9   100.40     LegendNANA
09:00 18.8 15.1 79 19 13   100.41     LegendNANA
10:00 19.9 15.4 75 20 13   100.49     LegendNANA
11:00 21.7 15.8 69 19 15   100.47 26   LegendNANA
12:00 25.2 17.2 61 16 11   100.41 31   LegendNANA
13:00 26.2 17.2 58 16 12   100.39 32   LegendNANA
14:00 25.2 17.4 62 16 12   100.43 31   LegendNANA
15:00 24.7 17.5 64 13 11   100.45 30   LegendNANA
16:00 23.7 17.1 67 15 12   100.49 29   LegendNANA
17:00 22.2 17.3 74 16 9   100.51 28   LegendNANA
18:00 21.2 17.0 77 12 6   100.52 26   LegendNANA
19:00 19.4 17.0 86 15 5   100.58     LegendNANA
20:00 18.6 16.9 90 18 7   100.70     LegendNANA
21:00 18.2 17.0 93 17 10   100.72     LegendNANA
22:00 18.3 17.1 93 19 12   100.73     LegendNANA
23:00 18.4 17.2 93 18 9   100.78     LegendNANA

Notes on Data Quality.

Legend

  • E = Estimated
  • M = Missing
  • NA = Not Available
  • ‡ = Partner data that is not subject to review by the National Climate Archives
Date modified: